Tracking 31030 objects as of 15-Jul-2025
HD Live streaming from Space Station
objects crossing your sky now

STARLINK-4272

Track STARLINK-4272 now!
10-day predictions
STARLINK-4272 is classified as:


NORAD ID: 52866
Int'l Code: 2022-062AN
Perigee: 546.0 km
Apogee: 547.8 km
Inclination: 53.2 °
Period: 95.4 minutes
Semi major axis: 6917 km
RCS: Unknown
Launch date: June 17, 2022
Source: United States (US)
Launch site: AIR FORCE EASTERN TEST RANGE (AFETR)
Your satellite tracking list
Your tracking list is empty




NASA's NSSDC Master Catalog

Two Line Element Set (TLE):
1 52866U 22062AN  25195.72837387  .00000007  00000-0  18512-4 0  9994
2 52866  53.2189  12.3713 0001316  93.1711 266.9432 15.08834179170003
Source of the keplerian elements: AFSPC